Deming, NM

4:20 PM MST on December 14, 2017 (GMT -0700)
Deming Municipal

Weather History for KDMN - November, 2012

Change the Weather History Date:

Thursday, November 8, 2012

  Actual Average Record
Temperature  
Mean Temperature 62 °F 53 °F  
Max Temperature 80 °F 69 °F 83 °F (1973)
Min Temperature 44 °F 37 °F 24 °F (2008)
Degree Days  
Heating Degree Days 3    
Growing Degree Days 12 (Base 50)    
Moisture  
Dew Point 25 °F    
Average Humidity 29    
Maximum Humidity 43    
Minimum Humidity 15    
Precipitation  
Precipitation T in 0.02 in 1.60 in (1961)
Month to date precipitation T 0.16  
Year to date precipitation 3.75 10.11  
Sea Level Pressure  
Sea Level Pressure 29.88 in    
Wind  
Wind Speed 6 mph (West)    
Max Wind Speed 22 mph    
Max Gust Speed 29 mph    
Visibility 10 miles    
Events      
T = Trace of Precipitation, MM = Missing Value Source: NWS Daily Summary

Daily Weather History Graph

Daily Weather History Graph

Search for Another Location

Airport or City:

Trip Planner

Search our weather history database for the weather conditions in past years. The results will help you decide how hot, cold, wet, or windy it might be!

Date:

Astronomy

Nov. 08, 2012 Rise Set
Actual Time 6:34 AM MST 5:14 PM MST
Civil Twilight 6:08 AM MST 5:40 PM MST
Nautical Twilight 5:39 AM MST 6:09 PM MST
Astronomical Twilight 5:10 AM MST 6:38 PM MST
Moon 12:52 AM MST (11/8) 1:39 PM MST (11/8)
Length of Visible Light 11h 31m
Length of Day
10h 40m
Waning Crescent, 32% of the Moon is Illuminated
Nov 8
Waning Crescent
Nov 13
New
Nov 20
First Quarter
Nov 28
Full
Dec 6
Last Quarter

Hourly Weather History & Observations

Time (MST) Temp. Windchill Dew Point Humidity Pressure Visibility Wind Dir Wind Speed Gust Speed Precip Events Conditions
1:53 AM 46.0 °F 44.8 °F 18.0 °F 33% 29.91 in 10.0 mi West 3.5 mph - N/A   Clear
2:53 AM 46.0 °F 44.8 °F 23.0 °F 40% 29.89 in 10.0 mi WNW 3.5 mph - N/A   Clear
3:53 AM 46.9 °F - 19.9 °F 34% 29.88 in 10.0 mi NW 5.8 mph - N/A   Clear
4:53 AM 46.9 °F - 19.9 °F 34% 29.90 in 10.0 mi WNW 8.1 mph - N/A   Clear
5:53 AM 46.9 °F - 21.9 °F 37% 29.92 in 10.0 mi Calm Calm - N/A   Clear
6:53 AM 45.0 °F - 19.0 °F 36% 29.95 in 10.0 mi Calm Calm - N/A   Clear
7:53 AM 51.1 °F - 21.9 °F 32% 29.96 in 10.0 mi Calm Calm - N/A   Clear
8:53 AM 57.0 °F - 21.9 °F 26% 29.96 in 10.0 mi Calm Calm - N/A   Clear
10:53 AM 73.0 °F - 26.1 °F 17% 29.91 in 10.0 mi Calm Calm - N/A   Clear
11:53 AM 75.0 °F - 27.0 °F 17% 29.88 in 10.0 mi SSW 6.9 mph - N/A   Clear
12:53 PM 78.1 °F - 28.9 °F 17% 29.83 in 10.0 mi West 10.4 mph 25.3 mph N/A   Clear
1:53 PM 79.0 °F - 27.0 °F 15% 29.81 in 10.0 mi WSW 12.7 mph 19.6 mph N/A   Clear
2:53 PM 77.0 °F - 27.0 °F 16% 29.82 in 10.0 mi West 11.5 mph - N/A   Clear
3:53 PM 75.0 °F - 28.0 °F 18% 29.83 in 10.0 mi West 13.8 mph 21.9 mph N/A   Clear
4:53 PM 73.0 °F - 27.0 °F 18% 29.84 in 10.0 mi West 13.8 mph - N/A   Clear
5:53 PM 66.9 °F - 19.9 °F 17% 29.86 in 10.0 mi West 8.1 mph - N/A   Clear
6:53 PM 61.0 °F - 21.0 °F 21% 29.90 in 10.0 mi West 6.9 mph - N/A   Clear
7:53 PM 55.9 °F - 19.9 °F 25% 29.90 in 10.0 mi WSW 5.8 mph - N/A   Clear
8:53 PM 60.1 °F - 30.9 °F 33% 29.88 in 10.0 mi West 8.1 mph - N/A   Clear
9:53 PM 62.1 °F - 36.0 °F 38% 29.87 in 10.0 mi West 12.7 mph - N/A   Clear
10:53 PM 55.9 °F - 33.1 °F 42% 29.87 in 10.0 mi Calm Calm - N/A   Partly Cloudy
11:53 PM 60.1 °F - 41.0 °F 49% 29.86 in 10.0 mi WSW 10.4 mph - 0.00 in   Mostly Cloudy